Location: Tel Aviv
(32.0670°N, 34.7670°E)
Time: 04:44:04
(UTC+02:00)

Vanguard 2 - All Passes

Search period start: 23 January 2022 00:00
Search period end: 02 February 2022 00:00
Orbit: 553 x 2936 km, 32.9° (Epoch: 22 January)

Date Brightness Start Highest point End Pass type
(mag) Time Alt. Az. Time Alt. Az. Time Alt. Az.
23 Jan - 00:29:11 10° W 00:44:30 83° SSW 01:02:32 10° ESE visible
23 Jan - 02:40:46 10° WNW 02:57:12 52° SSW 03:12:49 10° SE visible
23 Jan - 04:56:49 10° W 05:07:49 20° SW 05:17:34 10° S visible
23 Jan - 18:21:42 10° SSW 18:28:14 34° SE 18:38:18 10° E visible
23 Jan - 20:28:05 10° WSW 20:37:23 79° SSE 20:52:48 10° ENE visible
23 Jan - 22:36:54 10° W 22:49:19 87° N 23:07:14 10° E visible
24 Jan - 00:47:02 10° WNW 01:02:26 76° SSW 01:20:17 10° ESE visible
24 Jan - 02:59:00 10° W 03:14:42 43° SW 03:29:38 10° SSE visible
24 Jan - 05:18:13 10° WSW 05:25:02 13° SW 05:31:22 10° SSW visible
24 Jan - 18:38:34 10° SW 18:45:26 45° SE 18:56:38 10° E visible
24 Jan - 20:45:41 10° WSW 20:55:11 87° SSE 21:10:55 10° E visible
24 Jan - 22:54:41 10° W 23:07:21 89° N 23:25:20 10° E visible
25 Jan - 01:04:53 10° WNW 01:20:16 68° SSW 01:37:51 10° SE visible
25 Jan - 03:17:30 10° W 03:32:08 34° SW 03:46:04 10° SSE visible
25 Jan - 16:52:07 10° SSE 16:55:20 14° SE 16:59:13 10° ESE daylight
25 Jan - 18:55:42 10° SW 19:02:48 57° SSE 19:14:49 10° ENE visible
25 Jan - 21:03:21 10° W 21:13:05 88° N 21:29:04 10° E visible
25 Jan - 23:12:27 10° W 23:25:21 87° SSW 23:43:23 10° ESE night (unlit)
26 Jan - 01:22:48 10° WNW 01:38:02 58° SSW 01:55:09 10° SE visible
26 Jan - 03:36:31 10° W 03:49:30 26° SW 04:01:59 10° S visible
26 Jan - 17:07:46 10° S 17:12:20 22° SE 17:18:38 10° E daylight
26 Jan - 19:13:03 10° WSW 19:20:20 70° SSE 19:32:54 10° ENE visible
26 Jan - 21:21:03 10° W 21:31:01 86° N 21:47:14 10° E visible
26 Jan - 23:30:13 10° W 23:43:17 80° SSW 00:01:17 10° ESE visible
27 Jan - 01:40:50 10° W 01:55:41 49° SSW 02:12:10 10° SE visible
27 Jan - 03:56:23 10° W 04:06:53 19° SW 04:17:04 10° S visible
27 Jan - 17:24:16 10° SSW 17:29:26 31° SE 17:37:13 10° E visible
27 Jan - 19:30:32 10° WSW 19:38:01 81° SSE 19:50:58 10° E visible
27 Jan - 21:38:45 10° W 21:48:59 87° N 22:05:25 10° E visible
27 Jan - 23:47:58 10° WNW 00:01:10 72° SSW 00:19:01 10° ESE visible
28 Jan - 01:59:05 10° W 02:13:17 40° SW 02:28:51 10° SSE visible
28 Jan - 04:18:26 10° WSW 04:24:18 12° SW 04:30:05 10° SSW visible
28 Jan - 17:41:11 10° SW 17:46:41 43° SSE 17:55:28 10° E visible
28 Jan - 19:48:07 10° WSW 19:55:46 89° SSE 20:09:04 10° E visible
28 Jan - 21:56:29 10° W 22:06:55 90° S 22:23:32 10° ESE visible
29 Jan - 00:05:47 10° WNW 00:18:59 63° SSW 00:36:30 10° SE visible
29 Jan - 02:17:40 10° W 02:30:50 31° SW 02:45:06 10° SSE visible
29 Jan - 15:55:01 10° SSE 15:56:49 12° SE 15:58:50 10° ESE daylight
29 Jan - 17:58:23 10° SW 18:04:04 57° SSE 18:13:33 10° E visible
29 Jan - 20:05:45 10° W 20:13:36 87° N 20:27:11 10° E visible
29 Jan - 22:14:10 10° W 22:24:49 84° SSW 22:41:34 10° ESE visible
30 Jan - 00:23:40 10° W 00:36:44 53° SSW 00:53:44 10° SE visible
30 Jan - 02:36:48 10° W 02:48:23 23° SW 03:00:44 10° S visible
30 Jan - 16:10:25 10° S 16:13:54 19° SE 16:18:25 10° E daylight
30 Jan - 18:15:45 10° WSW 18:21:36 71° SSE 18:31:34 10° E visible
30 Jan - 20:23:25 10° W 20:31:28 86° N 20:45:20 10° E visible
30 Jan - 22:31:51 10° W 22:42:40 76° SSW 22:59:26 10° ESE visible
31 Jan - 00:41:43 10° W 00:54:27 44° SSW 01:10:38 10° SSE visible
31 Jan - 02:57:04 10° WSW 03:05:58 17° SW 03:15:17 10° S visible
31 Jan - 16:26:57 10° SSW 16:31:05 29° SE 16:36:56 10° E daylight
31 Jan - 18:33:16 10° WSW 18:39:15 83° SSE 18:49:34 10° E visible
31 Jan - 20:41:05 10° W 20:49:19 88° N 21:03:28 10° E visible
31 Jan - 22:49:35 10° W 23:00:29 66° SSW 23:17:06 10° SE visible
01 Feb - 01:00:01 10° W 01:12:10 35° SSW 01:27:08 10° SSE visible
01 Feb - 03:21:51 10° SW 03:23:38 10° SW 03:25:27 10° SW visible
01 Feb - 16:43:55 10° SW 16:48:23 42° SSE 16:55:05 10° E daylight
01 Feb - 18:50:50 10° W 18:56:59 88° N 19:07:36 10° E visible
01 Feb - 20:58:43 10° W 21:07:09 87° S 21:21:33 10° ESE visible
01 Feb - 23:07:22 10° W 23:18:16 56° SSW 23:34:30 10° SE night (unlit)
